Regional Weather Roundup
Issued by NWS Cleveland, OH

Home | Current Version | Previous Version | Text Only | Print | Product List | Glossary Off
Versions: 1 2 3 4 5 6 7 8 9 10 11 12 13 14 15 16 17 18 19 20 21 22 23 24 25 26 27 28 29 30 31 32 33 34 35 36 37 38 39 40 41 42 43 44 45 46 47 48 49 50

066
ASUS41 KCLE 041400
RWRCLE
OHIO REGIONAL WEATHER ROUNDUP
NATIONAL WEATHER SERVICE WILMINGTON, OH
900 AM EST SUN DEC 04 2016

NOTE: "FAIR" INDICATES FEW OR NO CLOUDS BELOW 12,000 FEET WITH NO
SIGNIFICANT WEATHER AND/OR OBSTRUCTIONS TO VISIBILITY.

OHZ001>008-015>018-024>027-034-035-043-044-041500-
   NORTHWEST OHIO

CITY           SKY/WX    TMP DP  RH WIND       PRES   REMARKS
DEFIANCE       CLOUDY    36  25  64 E6        30.21S
FINDLAY        FAIR      35  26  69 SE8       30.20F WCI  29
TOLEDO EXPRESS CLOUDY    33  29  85 CALM      30.22S
TOLEDO EXEC    CLOUDY    35  29  78 SE5       30.24S
LIMA           FAIR      33  29  85 E5        30.19S WCI  29
$$

OHZ009>014-019>023-028>033-038-089-041500-
   NORTHEAST OHIO

CITY           SKY/WX    TMP DP  RH WIND       PRES   REMARKS
CLE-HOPKINS    PTSUNNY   37  26  64 S5        30.26F
CLE-LAKEFRONT  FAIR      37  26  64 SW5       30.24F
CUY CO. ARPT   MOSUNNY   37  28  70 S5        30.24F
LORAIN-ELYRIA  FAIR      34  26  72 S6        30.24S WCI  29
ASHTABULA      CLOUDY    34  29  82 SE3       30.25S
AKRON-CANTON   CLOUDY    34  26  72 SE3       30.23S
WOOSTER        NOT AVBL
MANSFIELD      FAIR      33  25  72 SE6       30.21F WCI  28
YOUNGSTOWN     PTSUNNY   32  27  81 E3        30.23S
$$

OHZ042-051>053-060>062-070>072-077>081-041500-
  SOUTHWEST OHIO

CITY           SKY/WX    TMP DP  RH WIND       PRES   REMARKS
CINC-COVINGTON CLOUDY    37  30  75 SE10      30.16F
CINC-LUNKEN    PTSUNNY   39  31  72 VRB5      30.20F
HAMILTON       PTSUNNY   38  29  70 VRB3      30.20F
DAYTON         NOT AVBL
WRIGHT-PAT AFB NOT AVBL
DAYTON GENERAL FAIR      37  27  67 SE7       30.18F
WILMINGTON     FAIR      34  30  85 SE9       30.17F WCI  27
$$

OHZ036-037-039>041-045>050-054>059-063>069-073>076-082>088-041500-
  CENTRAL AND SOUTHEAST OHIO

CITY           SKY/WX    TMP DP  RH WIND       PRES   REMARKS
COLUMBUS       CLOUDY    36  29  75 SE10      30.20F
OSU AIRPORT    FAIR      35  30  82 SE8       30.19F WCI  29
BOLTON FIELD   PTSUNNY   36  30  80 SE7       30.20F
RICKENBACK AFB NOT AVBL
NEWARK         FAIR      35  27  72 E3        30.22F
MARION         FAIR      34  26  72 SE7       30.21F WCI  28
LANCASTER      FAIR      35  29  78 SE7       30.22F WCI  29
ZANESVILLE     FAIR      34  28  79 SE3       30.24S
NEW PHILLY     FAIR      33  30  88 CALM      30.26R
$$




USA.gov is the U.S. government's official web portal to all federal, state and local government web resources and services.